Hourly Weather Golczewice

Today, 12 May, Wednesday

Time Temperature Precipitation Wind Pressure Humidity
00:00 +19°C° 0 mm 4 mps 746 mmHg 79%
01:00 +18°C° 0 mm 3 mps 746 mmHg 80%
02:00 +18°C° 0 mm 3 mps 746 mmHg 83%
03:00 +17°C° 0 mm 2 mps 747 mmHg 87%
04:00 +16°C° 0 mm 2 mps 747 mmHg 91%
05:00 +16°C° 0 mm 2 mps 747 mmHg 89%
06:00 +17°C° 0 mm 3 mps 747 mmHg 87%
07:00 +17°C° 0 mm 3 mps 748 mmHg 85%
08:00 +18°C° 0 mm 3 mps 748 mmHg 83%
09:00 +18°C° 0 mm 3 mps 749 mmHg 81%
10:00 +18°C° 0 mm 3 mps 749 mmHg 80%
11:00 +19°C° 0 mm 2 mps 749 mmHg 77%
12:00 +19°C° 0 mm 2 mps 749 mmHg 74%
13:00 +20°C° 0 mm 2 mps 749 mmHg 71%
14:00 +20°C° 0 mm 2 mps 749 mmHg 71%
15:00 +20°C° 0 mm 2 mps 749 mmHg 72%
16:00 +20°C° 0 mm 3 mps 748 mmHg 72%
17:00 +19°C° 0.2 mm 3 mps 748 mmHg 77%
18:00 +18°C° 0.2 mm 3 mps 748 mmHg 81%
19:00 +18°C° 0.2 mm 4 mps 748 mmHg 86%
20:00 +17°C° 1.1 mm 4 mps 748 mmHg 89%
21:00 +15°C° 1.1 mm 4 mps 748 mmHg 92%
22:00 +14°C° 1.1 mm 4 mps 747 mmHg 96%
23:00 +13°C° 0.3 mm 4 mps 747 mmHg 96%

Tomorrow, 13 May, Thursday

Time Temperature Precipitation Wind Pressure Humidity
00:00 +13°C° 0.3 mm 3 mps 747 mmHg 97%
01:00 +13°C° 0.3 mm 3 mps 746 mmHg 97%
02:00 +13°C° 0 mm 3 mps 746 mmHg 97%
03:00 +13°C° 0 mm 3 mps 746 mmHg 97%
04:00 +13°C° 0 mm 3 mps 745 mmHg 97%
05:00 +13°C° 0 mm 3 mps 745 mmHg 94%
06:00 +13°C° 0 mm 4 mps 745 mmHg 90%
07:00 +14°C° 0 mm 4 mps 745 mmHg 87%
08:00 +15°C° 0 mm 4 mps 745 mmHg 81%
09:00 +17°C° 0 mm 4 mps 745 mmHg 74%
10:00 +18°C° 0 mm 4 mps 745 mmHg 68%
11:00 +19°C° 0 mm 4 mps 744 mmHg 64%
12:00 +20°C° 0 mm 4 mps 744 mmHg 60%
13:00 +21°C° 0 mm 4 mps 744 mmHg 56%
14:00 +20°C° 0 mm 3 mps 744 mmHg 59%
15:00 +19°C° 0 mm 3 mps 744 mmHg 62%
16:00 +19°C° 0 mm 2 mps 743 mmHg 65%
17:00 +18°C° 0.1 mm 2 mps 744 mmHg 70%
18:00 +17°C° 0.1 mm 2 mps 744 mmHg 75%
19:00 +16°C° 0.1 mm 2 mps 744 mmHg 81%
20:00 +14°C° 0 mm 2 mps 744 mmHg 85%
21:00 +13°C° 0 mm 2 mps 744 mmHg 90%
22:00 +12°C° 0 mm 2 mps 744 mmHg 95%
23:00 +12°C° 0 mm 2 mps 744 mmHg 95%

Day after tomorrow, 14 May, Friday

Time Temperature Precipitation Wind Pressure Humidity
00:00 +10°C° 0 mm 3 mps 744 mmHg 95%
01:00 +10°C° 0 mm 3 mps 744 mmHg 95%
02:00 +10°C° 0 mm 3 mps 744 mmHg 94%
03:00 +10°C° 0 mm 3 mps 744 mmHg 94%
04:00 +10°C° 0 mm 3 mps 744 mmHg 94%
05:00 +10°C° 0 mm 3 mps 745 mmHg 93%
06:00 +10°C° 0 mm 3 mps 745 mmHg 93%
07:00 +10°C° 0 mm 3 mps 745 mmHg 93%
08:00 +10°C° 0 mm 4 mps 746 mmHg 92%
09:00 +10°C° 0 mm 4 mps 746 mmHg 91%
10:00 +10°C° 0 mm 4 mps 746 mmHg 90%
11:00 +10°C° 0.1 mm 4 mps 746 mmHg 89%
12:00 +10°C° 0.1 mm 4 mps 747 mmHg 88%
13:00 +9°C° 0.1 mm 5 mps 747 mmHg 88%
14:00 +8°C° 0.1 mm 4 mps 747 mmHg 88%
15:00 +8°C° 0.1 mm 4 mps 748 mmHg 89%
16:00 +8°C° 0.1 mm 4 mps 748 mmHg 89%
17:00 +8°C° 0.1 mm 4 mps 748 mmHg 90%
18:00 +8°C° 0.1 mm 4 mps 748 mmHg 90%
19:00 +9°C° 0.1 mm 3 mps 748 mmHg 91%
20:00 +9°C° 0 mm 3 mps 749 mmHg 91%
21:00 +8°C° 0 mm 3 mps 749 mmHg 92%
22:00 +8°C° 0 mm 2 mps 749 mmHg 92%
23:00 +7°C° 0 mm 2 mps 749 mmHg 93%

15 May, Saturday

Time Temperature Precipitation Wind Pressure Humidity
00:00 +7°C° 0 mm 2 mps 749 mmHg 94%
01:00 +6°C° 0 mm 2 mps 749 mmHg 95%
02:00 +6°C° 0 mm 2 mps 749 mmHg 96%
03:00 +5°C° 0 mm 2 mps 750 mmHg 96%
04:00 +5°C° 0 mm 2 mps 750 mmHg 96%
05:00 +7°C° 0 mm 2 mps 750 mmHg 90%
06:00 +8°C° 0 mm 2 mps 750 mmHg 84%
07:00 +10°C° 0 mm 2 mps 750 mmHg 77%
08:00 +13°C° 0 mm 2 mps 750 mmHg 70%
09:00 +15°C° 0 mm 2 mps 750 mmHg 64%
10:00 +16°C° 0 mm 2 mps 750 mmHg 57%
11:00 +17°C° 0 mm 2 mps 750 mmHg 54%
12:00 +19°C° 0 mm 1 mps 750 mmHg 52%
13:00 +20°C° 0 mm 1 mps 750 mmHg 49%
14:00 +20°C° 0.2 mm 1 mps 749 mmHg 53%
15:00 +18°C° 0.2 mm 2 mps 749 mmHg 58%
16:00 +18°C° 0.2 mm 2 mps 749 mmHg 62%
17:00 +17°C° 0.3 mm 2 mps 749 mmHg 68%
18:00 +16°C° 0.3 mm 2 mps 749 mmHg 75%
19:00 +14°C° 0.3 mm 2 mps 749 mmHg 82%
20:00 +14°C° 0.7 mm 2 mps 749 mmHg 85%
21:00 +13°C° 0.7 mm 2 mps 750 mmHg 87%
22:00 +13°C° 0.7 mm 2 mps 750 mmHg 90%
23:00 +12°C° 0.3 mm 2 mps 750 mmHg 91%

16 May, Sunday

Time Temperature Precipitation Wind Pressure Humidity
00:00 +12°C° 0.3 mm 2 mps 750 mmHg 92%
01:00 +12°C° 0.3 mm 2 mps 750 mmHg 93%
02:00 +12°C° 0.4 mm 2 mps 750 mmHg 94%
03:00 +10°C° 0.4 mm 2 mps 750 mmHg 95%
04:00 +10°C° 0.4 mm 2 mps 750 mmHg 96%
05:00 +12°C° 0.2 mm 2 mps 750 mmHg 93%
06:00 +12°C° 0.2 mm 2 mps 750 mmHg 90%
07:00 +13°C° 0.2 mm 2 mps 750 mmHg 87%
08:00 +14°C° 0.1 mm 2 mps 750 mmHg 78%
09:00 +16°C° 0.1 mm 2 mps 750 mmHg 70%
10:00 +17°C° 0.1 mm 2 mps 750 mmHg 62%
11:00 +18°C° 0.1 mm 2 mps 749 mmHg 57%
12:00 +19°C° 0.1 mm 2 mps 749 mmHg 51%
13:00 +20°C° 0.1 mm 2 mps 749 mmHg 46%
14:00 +18°C° 0.2 mm 2 mps 749 mmHg 55%
15:00 +17°C° 0.2 mm 2 mps 749 mmHg 64%
16:00 +16°C° 0.2 mm 2 mps 749 mmHg 73%
17:00 +15°C° 0.3 mm 2 mps 749 mmHg 76%
18:00 +14°C° 0.3 mm 2 mps 749 mmHg 79%
19:00 +14°C° 0.3 mm 1 mps 749 mmHg 83%
20:00 +13°C° 0 mm 1 mps 749 mmHg 86%
21:00 +12°C° 0 mm 2 mps 749 mmHg 89%
22:00 +9°C° 0 mm 2 mps 749 mmHg 92%
23:00 +9°C° 0 mm 2 mps 749 mmHg 93%

17 May, Monday

Time Temperature Precipitation Wind Pressure Humidity
00:00 +9°C° 0 mm 2 mps 749 mmHg 94%
01:00 +8°C° 0 mm 2 mps 749 mmHg 95%
02:00 +8°C° 0 mm 2 mps 749 mmHg 96%
03:00 +7°C° 0 mm 2 mps 749 mmHg 96%
04:00 +7°C° 0 mm 2 mps 749 mmHg 97%
05:00 +8°C° 0 mm 3 mps 749 mmHg 93%
06:00 +9°C° 0 mm 3 mps 749 mmHg 89%
07:00 +11°C° 0 mm 3 mps 749 mmHg 85%
08:00 +12°C° 0.2 mm 4 mps 749 mmHg 79%
09:00 +13°C° 0.2 mm 4 mps 749 mmHg 73%
10:00 +15°C° 0.2 mm 5 mps 749 mmHg 67%
11:00 +16°C° 0.1 mm 5 mps 749 mmHg 60%
12:00 +18°C° 0.1 mm 4 mps 748 mmHg 54%
13:00 +19°C° 0.1 mm 4 mps 748 mmHg 48%
14:00 +19°C° 0.1 mm 4 mps 748 mmHg 51%
15:00 +18°C° 0.1 mm 4 mps 748 mmHg 54%
16:00 +18°C° 0.1 mm 3 mps 748 mmHg 57%
17:00 +16°C° 0.3 mm 3 mps 748 mmHg 65%
18:00 +14°C° 0.3 mm 3 mps 748 mmHg 73%
19:00 +14°C° 0.3 mm 2 mps 748 mmHg 80%
20:00 +13°C° 0 mm 2 mps 749 mmHg 85%
21:00 +12°C° 0 mm 2 mps 749 mmHg 90%
22:00 +9°C° 0 mm 3 mps 749 mmHg 94%
23:00 +9°C° 0.1 mm 2 mps 749 mmHg 95%
Show more